EW8359 Weather Reports


time (UTC)temp
C
wind
direction
speed
KPH
gust
KPH
rain 1hr
cm
rain 24hr
cm
rain mn
cm
humidity
%
barometer
mb
20260831051552 13 41 0.0 3.2 0.00 0.03 0.00 87 1015.4
20260831050103 13 41 0.0 1.6 0.00 0.03 0.00 86 1015.1
20260831044547 14 41 0.0 1.6 0.00 0.03 0.00 86 1015.2
20260831043049 14 41 0.0 1.6 0.00 0.03 0.00 84 1015.1
20260831041547 15 41 0.0 1.6 0.00 0.03 0.00 83 1015.2
20260831040048 15 41 0.0 3.2 0.00 0.03 0.00 80 1015.2
20260831034540 16 41 0.0 1.6 0.00 0.03 0.03 77 1015.1
20260831033036 17 41 0.0 6.4 0.00 0.03 0.03 74 1015.1
20260831031536 17 319 0.0 6.4 0.00 0.03 0.03 72 1015.0
20260831030045 18 355 1.6 12.9 0.00 0.03 0.03 72 1015.3
20260831024536 18 5 6.4 16.1 0.00 0.03 0.03 72 1015.4
20260831023035 18 40 4.8 25.7 0.03 0.03 0.03 81 1015.4
20260831021535 18 5 1.6 14.5 0.03 0.03 0.03 85 1014.7
20260831020034 18 202 1.6 6.4 0.03 0.03 0.03 84 1014.3
20260831014536 19 175 3.2 8.0 0.03 0.03 0.03 83 1014.3
20260831013033 19 184 6.4 20.9 0.00 0.00 0.00 81 1014.1
20260831011538 19 218 0.0 3.2 0.00 0.00 0.00 81 1013.8
20260831010032 19 218 0.0 1.6 0.00 0.00 0.00 81 1013.6
20260831004531 19 218 0.0 3.2 0.00 0.00 0.00 80 1013.3
20260831003030 19 218 0.0 1.6 0.00 0.00 0.00 79 1013.2
20260831001530 19 218 0.0 1.6 0.00 0.00 0.00 79 1013.2
20260831000024 20 219 0.0 3.2 0.00 0.00 0.00 79 1013.0
20260830234523 20 219 0.0 1.6 0.00 0.00 0.00 79 1012.9
20260830233032 20 219 0.0 1.6 0.00 0.00 0.00 78 1012.7
20260830231523 20 219 0.0 3.2 0.00 0.00 0.00 76 1012.8
20260830230025 20 219 0.0 1.6 0.00 0.00 0.00 75 1012.8
20260830224520 21 219 0.0 1.6 0.00 0.00 0.00 74 1012.8
20260830223017 21 219 0.0 4.8 0.00 0.00 0.00 71 1013.0
20260830221517 21 304 0.0 1.6 0.00 0.00 0.00 70 1013.2
20260830220028 22 304 0.0 6.4 0.00 0.00 0.00 66 1013.0
20260830214518 22 178 1.6 4.8 0.00 0.00 0.00 64 1013.1
20260830213019 22 207 3.2 6.4 0.00 0.00 0.00 60 1013.2
20260830211513 23 217 0.0 9.7 0.00 0.00 0.00 61 1013.2
20260830210020 23 175 3.2 11.3 0.00 0.00 0.00 62 1013.4
20260830204512 23 255 1.6 8.0 0.00 0.00 0.00 60 1013.5
20260830203009 22 201 1.6 6.4 0.00 0.00 0.00 67 1013.6
20260830201509 22 223 1.6 6.4 0.00 0.00 0.00 67 1013.6
20260830200008 21 171 3.2 8.0 0.00 0.00 0.00 69 1013.6
20260830194507 22 217 0.0 8.0 0.00 0.00 0.00 69 1013.8
20260830193003 21 218 0.0 6.4 0.00 0.00 0.00 71 1014.0
20260830191507 21 234 1.6 4.8 0.00 0.00 0.00 74 1014.2
20260830190111 21 230 1.6 6.4 0.00 0.00 0.00 77 1014.3
20260830184559 21 229 1.6 4.8 0.00 0.00 0.00 79 1014.5
20260830183056 20 181 1.6 6.4 0.00 0.00 0.00 82 1014.8
20260830181656 20 251 0.0 6.4 0.00 0.00 0.00 80 1015.0
20260830180056 20 137 0.0 4.8 0.00 0.00 0.00 84 1015.2
20260830174557 20 264 1.6 9.7 0.00 0.00 0.00 82 1015.4
20260830173053 20 181 0.0 4.8 0.00 0.00 0.00 82 1015.4
20260830171552 20 210 0.0 1.6 0.00 0.00 0.00 80 1015.5
20260830170152 22 150 0.0 3.2 0.00 0.00 0.00 74 1015.1
20260830164549 22 273 1.6 16.1 0.00 0.00 0.00 64 1015.6
20260830163048 23 221 3.2 11.3 0.00 0.00 0.00 62 1015.6
20260830161559 23 236 3.2 16.1 0.00 0.00 0.00 61 1015.6
20260830160048 23 219 6.4 11.3 0.00 0.00 0.00 58 1015.8
20260830154545 23 243 4.8 17.7 0.00 0.00 0.00 60 1015.7
20260830153045 24 187 3.2 14.5 0.00 0.00 0.00 59 1015.7
20260830151542 24 251 3.2 8.0 0.00 0.00 0.00 56 1015.8
20260830150043 22 161 1.6 4.8 0.00 0.00 0.00 67 1016.0
20260830144543 22 198 0.0 4.8 0.00 0.00 0.00 70 1016.1
20260830143033 22 215 0.0 16.1 0.00 0.00 0.00 65 1016.2
20260830141539 21 246 1.6 6.4 0.00 0.00 0.00 69 1016.4
20260830140029 21 182 1.6 6.4 0.00 0.00 0.00 68 1016.3
20260830134529 21 182 1.6 12.9 0.00 0.00 0.00 66 1016.4
20260830133023 20 226 1.6 14.5 0.00 0.00 0.00 70 1016.3
20260830131540 19 200 3.2 17.7 0.00 0.00 0.00 70 1016.5
20260830130018 18 145 1.6 8.0 0.00 0.00 0.00 75 1016.5
20260830124515 18 217 3.2 12.9 0.00 0.00 0.00 76 1016.7
20260830123011 17 187 1.6 11.3 0.00 0.00 0.00 80 1016.6
20260830121507 15 183 3.2 9.7 0.00 0.00 0.00 87 1016.8
20260830120002 13 200 1.6 4.8 0.00 0.00 0.00 88 1016.9
20260830114601 13 274 0.0 3.2 0.00 0.00 0.00 88 1016.9
20260830113058 13 274 0.0 1.6 0.00 0.00 0.00 88 1017.1
20260830111556 13 274 0.0 1.6 0.00 0.00 0.00 88 1017.0
20260830110055 12 71 1.6 4.8 0.00 0.00 0.00 88 1016.9
20260830104553 11 267 1.6 3.2 0.00 0.00 0.00 89 1016.8
20260830103052 11 267 0.0 3.2 0.00 0.00 0.00 89 1016.8
20260830101553 11 267 0.0 3.2 0.00 0.00 0.00 89 1017.1
20260830100049 11 267 0.0 3.2 0.00 0.00 0.00 89 1017.1
20260830094550 10 267 0.0 1.6 0.00 0.00 0.00 89 1017.1
20260830093046 10 267 0.0 1.6 0.00 0.00 0.00 89 1017.4
20260830091547 10 267 0.0 3.2 0.00 0.00 0.00 89 1017.5
20260830090045 10 267 0.0 1.6 0.00 0.00 0.00 89 1017.5
20260830084545 10 267 0.0 3.2 0.00 0.00 0.00 89 1017.6
20260830083049 10 267 0.0 1.6 0.00 0.00 0.00 89 1017.5
20260830081542 10 267 0.0 1.6 0.00 0.00 0.00 89 1017.4
20260830080043 10 267 0.0 1.6 0.00 0.00 0.00 89 1017.3
20260830074542 10 267 0.0 1.6 0.00 0.00 0.00 88 1017.4
20260830073038 10 267 0.0 0.0 0.00 0.00 0.00 88 1017.4
20260830071539 10 267 0.0 1.6 0.00 0.00 0.00 88 1017.4
20260830070057 10 267 0.0 0.0 0.00 0.00 0.00 88 1017.5
20260830064533 10 267 0.0 1.6 0.00 0.00 0.00 88 1017.5
20260830063034 11 267 0.0 3.2 0.00 0.00 0.00 87 1017.5
20260830061528 11 267 0.0 1.6 0.00 0.00 0.00 87 1017.7
20260830060042 11 267 0.0 0.0 0.00 0.00 0.00 87 1017.7
20260830054526 11 267 0.0 1.6 0.00 0.00 0.00 87 1017.8
20260830053023 11 267 0.0 0.0 0.00 0.00 0.00 86 1017.8